Tracking 25963 objects as of 13-Aug-2022
HD Live streaming from Space Station
objects crossing your sky now

STARLINK-4143

Track STARLINK-4143 now!
10-day predictions
STARLINK-4143 is classified as:


NORAD ID: 53029
Int'l Code: 2022-076AV
Perigee: 355.0 km
Apogee: 358.4 km
Inclination: 53.2 °
Period: 91.5 minutes
Semi major axis: 6727 km
RCS: Unknown
Launch date: July 7, 2022
Source: United States (US)
Launch site: AIR FORCE EASTERN TEST RANGE (AFETR)
aabbcc
Your satellite tracking list
Your tracking list is empty




NASA's NSSDC Master Catalog

Two Line Element Set (TLE):
1 53029U 22076AV  22224.58334491 -.00080366  00000-0 -57165-3 0  9997
2 53029  53.2181 201.2201 0002507  25.6173 269.6003 15.73277332  1307
Source of the keplerian elements: AFSPC